Hourly Weather Tamale

Today, 12 August, Wednesday

Time Temperature Precipitation Wind Pressure Humidity
00:00 +23°C° 0 mm 1 mps 743 mmHg 90%
01:00 +23°C° 0 mm 1 mps 743 mmHg 90%
02:00 +23°C° 0 mm 1 mps 743 mmHg 91%
03:00 +22°C° 0 mm 1 mps 743 mmHg 92%
04:00 +22°C° 0 mm 1 mps 743 mmHg 93%
05:00 +22°C° 0 mm 1 mps 744 mmHg 94%
06:00 +22°C° 0 mm 1 mps 744 mmHg 95%
07:00 +24°C° 0 mm 1 mps 744 mmHg 87%
08:00 +26°C° 0 mm 2 mps 745 mmHg 78%
09:00 +28°C° 0 mm 2 mps 745 mmHg 70%
10:00 +29°C° 0 mm 2 mps 745 mmHg 67%
11:00 +30°C° 0 mm 2 mps 745 mmHg 63%
12:00 +31°C° 0 mm 2 mps 745 mmHg 60%
13:00 +31°C° 0 mm 2 mps 744 mmHg 61%
14:00 +31°C° 0 mm 2 mps 743 mmHg 62%
15:00 +31°C° 0 mm 2 mps 743 mmHg 62%
16:00 +30°C° 0 mm 1 mps 743 mmHg 67%
17:00 +29°C° 0 mm 1 mps 743 mmHg 71%
18:00 +28°C° 0 mm 1 mps 743 mmHg 75%
19:00 +27°C° 0 mm 1 mps 743 mmHg 78%
20:00 +26°C° 0 mm 1 mps 743 mmHg 81%
21:00 +23°C° 0 mm 0 mps 743 mmHg 84%
22:00 +24°C° 0 mm 1 mps 743 mmHg 85%
23:00 +24°C° 0 mm 1 mps 743 mmHg 85%

Tomorrow, 13 August, Thursday

Time Temperature Precipitation Wind Pressure Humidity
00:00 +24°C° 0 mm 1 mps 743 mmHg 86%
01:00 +24°C° 0 mm 1 mps 743 mmHg 87%
02:00 +23°C° 0 mm 1 mps 743 mmHg 88%
03:00 +21°C° 0 mm 0 mps 743 mmHg 89%
04:00 +21°C° 0 mm 0 mps 743 mmHg 89%
05:00 +21°C° 0 mm 0 mps 743 mmHg 90%
06:00 +21°C° 0 mm 0 mps 744 mmHg 90%
07:00 +25°C° 0 mm 1 mps 744 mmHg 82%
08:00 +27°C° 0 mm 1 mps 745 mmHg 74%
09:00 +29°C° 0 mm 2 mps 745 mmHg 66%
10:00 +30°C° 0 mm 2 mps 745 mmHg 62%
11:00 +31°C° 0 mm 2 mps 744 mmHg 58%
12:00 +32°C° 0 mm 2 mps 744 mmHg 54%
13:00 +32°C° 0 mm 2 mps 743 mmHg 55%
14:00 +32°C° 0 mm 2 mps 742 mmHg 56%
15:00 +32°C° 0 mm 2 mps 742 mmHg 58%
16:00 +31°C° 0 mm 1 mps 742 mmHg 62%
17:00 +30°C° 0 mm 1 mps 741 mmHg 66%
18:00 +28°C° 0 mm 1 mps 741 mmHg 71%
19:00 +28°C° 0 mm 1 mps 742 mmHg 72%
20:00 +27°C° 0 mm 1 mps 742 mmHg 73%
21:00 +24°C° 0 mm 0 mps 743 mmHg 74%
22:00 +26°C° 0 mm 1 mps 743 mmHg 76%
23:00 +26°C° 0 mm 1 mps 743 mmHg 77%

Day after tomorrow, 14 August, Friday

Time Temperature Precipitation Wind Pressure Humidity
00:00 +25°C° 0 mm 1 mps 742 mmHg 79%
01:00 +25°C° 0 mm 1 mps 742 mmHg 80%
02:00 +25°C° 0 mm 1 mps 742 mmHg 81%
03:00 +25°C° 0 mm 1 mps 741 mmHg 82%
04:00 +25°C° 0.1 mm 1 mps 741 mmHg 84%
05:00 +24°C° 0.1 mm 1 mps 742 mmHg 86%
06:00 +24°C° 0.1 mm 1 mps 742 mmHg 88%
07:00 +25°C° 1.3 mm 1 mps 742 mmHg 87%
08:00 +25°C° 1.3 mm 2 mps 743 mmHg 86%
09:00 +26°C° 1.3 mm 2 mps 743 mmHg 86%
10:00 +26°C° 1.5 mm 2 mps 743 mmHg 87%
11:00 +26°C° 1.5 mm 2 mps 743 mmHg 89%
12:00 +26°C° 1.5 mm 2 mps 742 mmHg 91%
13:00 +26°C° 0 mm 2 mps 742 mmHg 89%
14:00 +26°C° 0 mm 2 mps 741 mmHg 87%
15:00 +27°C° 0 mm 1 mps 740 mmHg 85%
16:00 +26°C° 0.3 mm 2 mps 740 mmHg 88%
17:00 +25°C° 0.3 mm 2 mps 740 mmHg 91%
18:00 +25°C° 0.3 mm 2 mps 740 mmHg 94%
19:00 +25°C° 0 mm 2 mps 741 mmHg 94%
20:00 +25°C° 0 mm 2 mps 741 mmHg 93%
21:00 +25°C° 0 mm 2 mps 741 mmHg 93%
22:00 +25°C° 0 mm 2 mps 741 mmHg 93%
23:00 +24°C° 0 mm 2 mps 741 mmHg 93%

15 August, Saturday

Time Temperature Precipitation Wind Pressure Humidity
00:00 +24°C° 0 mm 2 mps 741 mmHg 93%
01:00 +24°C° 0.3 mm 2 mps 741 mmHg 94%
02:00 +24°C° 0.3 mm 2 mps 741 mmHg 95%
03:00 +24°C° 0.3 mm 1 mps 740 mmHg 96%
04:00 +24°C° 0.6 mm 2 mps 741 mmHg 97%
05:00 +24°C° 0.6 mm 2 mps 741 mmHg 97%
06:00 +24°C° 0.6 mm 2 mps 741 mmHg 97%
07:00 +24°C° 1.1 mm 2 mps 742 mmHg 97%
08:00 +24°C° 1.1 mm 2 mps 742 mmHg 97%
09:00 +24°C° 1.1 mm 2 mps 743 mmHg 96%
10:00 +24°C° 1.7 mm 2 mps 743 mmHg 96%
11:00 +24°C° 1.7 mm 3 mps 742 mmHg 96%
12:00 +24°C° 1.7 mm 3 mps 742 mmHg 96%
13:00 +23°C° 0.2 mm 4 mps 742 mmHg 93%
14:00 +23°C° 0.2 mm 4 mps 741 mmHg 91%
15:00 +25°C° 0.2 mm 4 mps 741 mmHg 88%
16:00 +25°C° 0 mm 3 mps 741 mmHg 89%
17:00 +24°C° 0 mm 3 mps 741 mmHg 89%
18:00 +24°C° 0 mm 2 mps 741 mmHg 90%
19:00 +24°C° 0 mm 2 mps 742 mmHg 92%
20:00 +23°C° 0 mm 1 mps 742 mmHg 94%
21:00 +23°C° 0 mm 1 mps 742 mmHg 97%
22:00 +22°C° 0 mm 1 mps 742 mmHg 97%
23:00 +22°C° 0 mm 1 mps 742 mmHg 98%

16 August, Sunday

Time Temperature Precipitation Wind Pressure Humidity
00:00 +22°C° 0 mm 1 mps 742 mmHg 98%
01:00 +22°C° 0 mm 1 mps 742 mmHg 98%
02:00 +22°C° 0 mm 1 mps 742 mmHg 98%
03:00 +22°C° 0 mm 1 mps 742 mmHg 98%
04:00 +22°C° 0 mm 1 mps 742 mmHg 98%
05:00 +22°C° 0 mm 1 mps 742 mmHg 98%
06:00 +21°C° 0 mm 1 mps 742 mmHg 98%
07:00 +23°C° 0 mm 2 mps 743 mmHg 91%
08:00 +25°C° 0 mm 2 mps 743 mmHg 84%
09:00 +27°C° 0 mm 3 mps 744 mmHg 77%
10:00 +28°C° 0 mm 3 mps 743 mmHg 73%
11:00 +29°C° 0 mm 3 mps 743 mmHg 70%
12:00 +30°C° 0 mm 3 mps 742 mmHg 66%
13:00 +30°C° 0 mm 3 mps 742 mmHg 66%
14:00 +30°C° 0 mm 3 mps 741 mmHg 65%
15:00 +30°C° 0 mm 2 mps 740 mmHg 65%
16:00 +29°C° 0 mm 2 mps 740 mmHg 70%
17:00 +28°C° 0 mm 2 mps 740 mmHg 75%
18:00 +27°C° 0 mm 2 mps 740 mmHg 80%
19:00 +26°C° 0 mm 1 mps 741 mmHg 82%
20:00 +25°C° 0 mm 1 mps 741 mmHg 84%
21:00 +25°C° 0 mm 1 mps 742 mmHg 87%
22:00 +24°C° 0 mm 1 mps 742 mmHg 87%
23:00 +24°C° 0 mm 1 mps 742 mmHg 88%

17 August, Monday

Time Temperature Precipitation Wind Pressure Humidity
00:00 +24°C° 0 mm 1 mps 742 mmHg 89%
01:00 +24°C° 0 mm 1 mps 741 mmHg 89%
02:00 +23°C° 0 mm 1 mps 741 mmHg 90%
03:00 +23°C° 0 mm 1 mps 741 mmHg 90%
04:00 +24°C° 0 mm 1 mps 742 mmHg 88%
05:00 +24°C° 0 mm 1 mps 742 mmHg 87%
06:00 +24°C° 0 mm 1 mps 742 mmHg 86%
07:00 +25°C° 0 mm 2 mps 743 mmHg 84%
08:00 +26°C° 0 mm 2 mps 743 mmHg 82%
09:00 +26°C° 0 mm 3 mps 743 mmHg 80%
10:00 +28°C° 0 mm 3 mps 743 mmHg 74%
11:00 +29°C° 0 mm 3 mps 743 mmHg 69%
12:00 +31°C° 0 mm 3 mps 742 mmHg 64%
13:00 +31°C° 0 mm 3 mps 741 mmHg 63%
14:00 +31°C° 0 mm 3 mps 741 mmHg 62%
15:00 +33°C° 0 mm 3 mps 740 mmHg 61%
16:00 +30°C° 0 mm 2 mps 740 mmHg 66%
17:00 +29°C° 0 mm 2 mps 740 mmHg 71%
18:00 +28°C° 0 mm 1 mps 740 mmHg 76%
19:00 +27°C° 0 mm 1 mps 740 mmHg 77%
20:00 +27°C° 0 mm 1 mps 741 mmHg 79%
21:00 +26°C° 0 mm 1 mps 742 mmHg 80%
22:00 +26°C° 0 mm 1 mps 742 mmHg 81%
23:00 +25°C° 0 mm 1 mps 742 mmHg 83%
Show more